Home   Weather   Schwäbisch Hall   Past weeks

Flag for Germany Past Weather in Schwäbisch Hall, Baden-Württemberg, Germany — Yesterday and Last 2 Weeks

Now
30 °F

Ice fog.


Feels Like: 30 °F
Forecast: 25 / 43 °F
Wind: 2 mph from North

Location: Niederstetten

Current Time: Dec 7, 2016 at 3:47:26 pm

Latest Report: Dec 7, 2016 at 2:20 pm


Visibility: 0 mi

Pressure: 30.51 "Hg

Humidity: 93%

Dew Point: 28 °F

Location of Schwäbisch HallLocation

Past Weather in Schwäbisch Hall — Graph

°F

Schwäbisch Hall Temperature Yesterday

Maximum temperature yesterday: 32 °F (at 12:20 pm)
Minimum temperature yesterday: 21 °F (at 8:20 am)
Average temperature yesterday: 26 °F

High & Low Weather Summary for the Past Weeks

 TemperatureHumidityPressure
High50 °F (Nov 22, 2:20 pm)100% (Nov 23, 1:20 am)30.51 "Hg (Nov 23, 1:20 am)
Low19 °F (Dec 4, 6:20 am)56% (Nov 29, 2:20 pm)29.89 "Hg (Nov 22, 2:20 pm)
Average33 °F88%30.22 "Hg
* Reported Nov 22 2:20 pm — Dec 7 2:20 pm, Schwäbisch Hall, Weather by CustomWeather, © 2016

Note: Actual official high and low records may vary slightly from our data, if they occured in-between our weather recording intervals... More about our weather records

Advertising

Schwäbisch Hall Weather History for the Previous 24 Hours

Scroll right to see more
 ConditionsComfort  
Time TempWeatherWind HumidityBarometerVisibility
2:20 pm
Wed, Dec 7
30 °FIce fog.2 mph93%30.51 "Hg0 mi
1:20 pm28 °FIce fog.3 mph100%30.51 "Hg0 mi
12:20 pm28 °FIce fog.1 mph100%30.51 "Hg0 mi
11:57 am28 °FIce fog.2 mph100%30.51 "Hg0 mi
11:20 am28 °FIce fog.1 mph93%30.51 "Hg1 mi
10:20 am27 °FIce fog.5 mph93%30.51 "Hg1 mi
9:20 am25 °FIce fog.3 mph93%30.51 "Hg0 mi
8:20 am23 °FIce fog.3 mph100%30.51 "Hg0 mi
7:20 am23 °FIce fog.2 mph93%30.51 "Hg0 mi
6:20 am23 °FIce fog.3 mph100%30.51 "Hg0 mi
5:20 am25 °FIce fog.6 mph93%30.51 "Hg0 mi
4:20 am25 °FIce fog.2 mph93%30.51 "Hg0 mi
3:20 am25 °FIce fog.5 mph100%30.51 "Hg0 mi
2:20 am25 °FIce fog.3 mph93%30.51 "Hg0 mi
1:20 am25 °FIce fog.5 mph93%30.51 "Hg0 mi
12:20 am25 °FIce fog.5 mph93%30.48 "Hg0 mi
11:20 pm
Tue, Dec 6
25 °FIce fog.7 mph93%30.48 "Hg0 mi
10:20 pm27 °FIce fog.6 mph93%30.48 "Hg0 mi
9:20 pm25 °FIce fog.5 mph100%30.48 "Hg0 mi
8:20 pm27 °FIce fog.5 mph93%30.48 "Hg0 mi
6:20 pm27 °FIce fog.6 mph100%30.48 "Hg0 mi
5:20 pm27 °FIce fog.6 mph100%30.48 "Hg0 mi
5:00 pm27 °FIce fog.5 mph100%30.48 "Hg0 mi
4:20 pm28 °FIce fog.5 mph93%30.45 "Hg0 mi
3:20 pm28 °FIce fog.5 mph93%30.45 "Hg0 mi
Weather by CustomWeather, © 2016

See weather overviewHow to use our weather pages